DateTime,DeltaTime,Roll,TargetAngle,Position,Power
2022-05-23 14:26:45.692,0,4.55,12.9,3,-24.3
2022-05-23 14:26:45.806,0.114000588655472,1.55,-7.64,2,66.47
2022-05-23 14:26:45.921,0.228996947407722,-2.39,-22,2,90
2022-05-23 14:26:46.036,0.344003364443779,-5.53,-22,3,88.6
2022-05-23 14:26:46.150,0.458003953099251,-6.19,-22,3,90
2022-05-23 14:26:46.265,0.573000311851501,-3.79,-2.78,3,-3.85
2022-05-23 14:26:46.380,0.688006728887558,0.73,22.28,3,-90
2022-05-23 14:26:46.494,0.801997259259224,5.36,28,2,-90
2022-05-23 14:26:46.610,0.917999446392059,8.04,28,3,-90
2022-05-23 14:26:46.724,1.03200003504753,7.31,22.43,2,-63.15
2022-05-23 14:26:46.838,1.146000623703,3.29,-6.08,2,65.85
2022-05-23 14:26:46.953,1.26099698245525,-2.47,-22,3,90
2022-05-23 14:26:47.069,1.37699916958809,-7.66,-22,2,90
2022-05-23 14:26:47.183,1.49099975824356,-9.66,-22,2,87.29
2022-05-23 14:26:47.297,1.60500034689903,-7.2,-14.51,2,51.17
2022-05-23 14:26:47.412,1.72000676393509,-1.13,22.54,2,-90
2022-05-23 14:26:47.527,1.83500312268734,6.13,28,2,-90
2022-05-23 14:26:47.641,1.94900371134281,11.75,28,2,-90
2022-05-23 14:26:47.755,2.06300429999828,12.96,28,2,-90
2022-05-23 14:26:47.870,2.17800065875053,8.46,9.96,2,-5.77
2022-05-23 14:26:47.986,2.29400284588337,0.07,-22,3,90
2022-05-23 14:26:48.099,2.40699760615826,-8.81,-22,3,90
2022-05-23 14:26:48.210,2.51800082623959,-13.71,-22,2,90
2022-05-23 14:26:48.325,2.63299718499184,-11.85,-22,2,87.29
2022-05-23 14:26:48.440,2.74800360202789,-4.21,18.61,2,-90
2022-05-23 14:26:48.554,2.86200419068336,6.74,28,3,-90
2022-05-23 14:26:48.670,2.9780063778162,15.46,28,2,-90
2022-05-23 14:26:48.784,3.09199690818787,17.76,28,2,-90
2022-05-23 14:26:48.899,3.20700332522392,12.56,21.25,2,-62.21
2022-05-23 14:26:49.013,3.32100391387939,1.16,-22,2,90
2022-05-23 14:26:49.127,3.43500450253487,-7.7,-22,3,88.6
2022-05-23 14:26:49.243,3.5510066896677,-6.96,-21.08,3,88.99
2022-05-23 14:26:49.357,3.66499722003937,-1.35,19.77,3,-90
2022-05-23 14:26:49.471,3.77899780869484,1.92,20.98,2,-67.93
2022-05-23 14:26:49.586,3.8940042257309,2.55,11.68,2,-24.86
2022-05-23 14:26:49.702,4.01000641286373,1.64,1.73,2,13.15
2022-05-23 14:26:49.815,4.12300117313862,-1.03,-15.25,2,85.08
2022-05-23 14:26:49.930,4.23799753189087,-4.26,-22,2,90
2022-05-23 14:26:50.046,4.3539997190237,-5.21,-22,2,88.6
2022-05-23 14:26:50.160,4.46800030767918,-3.63,-5.81,2,7.62
2022-05-23 14:26:50.275,4.58300672471523,-1.18,6.54,2,-32.23
2022-05-23 14:26:50.390,4.69800308346748,0.53,9.35,2,-30.51
2022-05-23 14:26:50.504,4.81200367212296,0.89,4.67,2,-4.08
2022-05-23 14:26:50.619,4.92700003087521,0.33,-1.31,3,19.43
2022-05-23 14:26:50.734,5.04200644791126,-0.42,-4.71,3,33.91
2022-05-23 14:26:50.848,5.15599697828293,-0.92,-5.41,3,32.36
2022-05-23 14:26:50.963,5.27100339531898,-1.24,-5.7,2,33.68
2022-05-23 14:26:51.078,5.38599975407124,-2.15,-11.49,2,58.02
2022-05-23 14:26:51.192,5.50000034272671,-3.46,-17.87,2,81.69
2022-05-23 14:26:51.307,5.61500675976276,-4.04,-16.65,3,67.26
2022-05-23 14:26:51.422,5.73000311851501,-2.83,-4.6,2,13.57
2022-05-23 14:26:51.536,5.84400370717049,0.04,12.69,2,-62.71
2022-05-23 14:26:51.651,5.95900006592274,3.23,25.24,3,-90
2022-05-23 14:26:51.766,6.07400648295879,4.86,24.15,2,-75.33
2022-05-23 14:26:51.880,6.18799701333046,3.44,5.86,2,8.41
2022-05-23 14:26:51.996,6.30399920046329,-0.73,-20.77,2,90
2022-05-23 14:26:52.110,6.41799978911877,-4.82,-22,2,90
2022-05-23 14:26:52.225,6.53300620615482,-6.38,-22,3,88.6
2022-05-23 14:26:52.339,6.6470067948103,-4.47,-7.26,2,19.9
2022-05-23 14:26:52.454,6.76200315356255,-0.01,19.39,2,-90
2022-05-23 14:26:52.568,6.87600374221802,4.07,28,2,-90
2022-05-23 14:26:52.682,6.99000433087349,4.32,16.22,3,-37.08
2022-05-23 14:26:52.797,7.10500068962574,1.76,-5.02,2,57.43
2022-05-23 14:26:52.913,7.22100287675858,-1.31,-17.96,2,89.33
2022-05-23 14:26:53.027,7.33500346541405,-2.19,-11.52,2,41.47
2022-05-23 14:26:53.142,7.4499998241663,0.6,14.31,3,-78.02
2022-05-23 14:26:53.256,7.56400041282177,6.08,28,2,-90
2022-05-23 14:26:53.370,7.67800100147724,9.68,28,2,-90
2022-05-23 14:26:53.486,7.79400318861008,9.52,28,2,-90
2022-05-23 14:26:53.600,7.90800377726555,6.17,6.94,2,9.36
2022-05-23 14:26:53.711,8.01899693906307,0.34,-22,2,90
2022-05-23 14:26:53.825,8.13299752771854,-4.63,-22,2,88.6
2022-05-23 14:26:53.940,8.2480039447546,-5.47,-22,2,88.6
2022-05-23 14:26:54.055,8.36300030350685,-1.72,10.35,2,-73.18
2022-05-23 14:26:54.169,8.47700089216232,4.24,28,2,-90
2022-05-23 14:26:54.284,8.59199725091457,9.06,28,2,-90
2022-05-23 14:26:54.398,8.70599783957005,10.27,28,2,-90
2022-05-23 14:26:54.513,8.8210042566061,7.71,15.81,3,-35.01
2022-05-23 14:26:54.628,8.93600061535835,2.54,-13.65,2,90
2022-05-23 14:26:54.743,9.0509969741106,-3.21,-22,3,90
2022-05-23 14:26:54.858,9.16600339114666,-6.74,-22,2,90
2022-05-23 14:26:54.972,9.28000397980213,-6.54,-22,2,87.29
2022-05-23 14:26:55.087,9.39500033855438,-2.85,6.15,2,-52.16
2022-05-23 14:26:55.202,9.51000675559044,2.39,28,2,-90
2022-05-23 14:26:55.316,9.6239972859621,6.85,28,3,-90
2022-05-23 14:26:55.431,9.73900370299816,7.77,28,2,-90
2022-05-23 14:26:55.545,9.85300429165363,5.28,7.6,2,4.72
2022-05-23 14:26:55.660,9.96800065040588,0.76,-17.05,2,90
2022-05-23 14:26:55.775,10.0829970091581,-3.21,-22,3,90
2022-05-23 14:26:55.890,10.1980034261942,-4.16,-18.71,3,77.13
2022-05-23 14:26:56.005,10.3129997849464,-2.77,-3.63,2,4.73
2022-05-23 14:26:56.120,10.4280062019825,0.81,18.44,3,-90
2022-05-23 14:26:56.234,10.542006790638,4.98,28,3,-90
2022-05-23 14:26:56.348,10.6559973210096,6.55,28,2,-90
2022-05-23 14:26:56.463,10.7710037380457,4.38,5.88,2,13.36
2022-05-23 14:26:56.578,10.8860000967979,-0.34,-21.8,2,90
2022-05-23 14:26:56.693,11.001006513834,-5.47,-22,2,88.86
2022-05-23 14:26:56.807,11.1149970442057,-7.97,-22,2,88.6
2022-05-23 14:26:56.922,11.2300034612417,-6.56,-16.79,3,62.52
2022-05-23 14:26:57.037,11.344999819994,-1.83,14.25,2,-80.85
2022-05-23 14:26:57.151,11.4590004086494,4.13,28,2,-90
2022-05-23 14:26:57.266,11.5740068256855,7.83,28,2,-90
2022-05-23 14:26:57.380,11.6879973560572,7.28,23.06,3,-71.27
2022-05-23 14:26:57.496,11.80399954319,2.86,-9.29,2,89.04
2022-05-23 14:26:57.609,11.9170043617487,-3.27,-22,2,90
2022-05-23 14:26:57.725,12.0330065488815,-7.64,-22,3,88.6
2022-05-23 14:26:57.838,12.1460013091564,-7.72,-22,2,90
2022-05-23 14:26:57.954,12.2620034962893,-3.51,6.1,2,-53.25
2022-05-23 14:26:58.069,12.3769998550415,2.79,28,2,-90
2022-05-23 14:26:58.184,12.4920062720776,7.63,28,2,-90
2022-05-23 14:26:58.298,12.606006860733,8.03,28,2,-90
2022-05-23 14:26:58.412,12.7199973911047,5.15,5.42,2,16.95
2022-05-23 14:26:58.524,12.8320064395666,-0,-22,2,90
2022-05-23 14:26:58.638,12.9459969699383,-5.34,-22,3,88.6
2022-05-23 14:26:58.753,13.0610033869743,-7.85,-22,3,90
2022-05-23 14:26:58.867,13.1750039756298,-5.89,-12.1,2,42.8
2022-05-23 14:26:58.982,13.2900003343821,-0.36,22.89,2,-90
2022-05-23 14:26:59.097,13.4050067514181,6.21,28,3,-90
2022-05-23 14:26:59.211,13.5189972817898,10.08,28,2,-90
2022-05-23 14:26:59.325,13.6329978704453,9.2,28,2,-90
2022-05-23 14:26:59.440,13.7480042874813,4.38,-5.71,2,72.6
2022-05-23 14:26:59.555,13.8630006462336,-1.88,-22,2,90
2022-05-23 14:26:59.670,13.9779970049858,-5.77,-22,2,88.6
2022-05-23 14:26:59.785,14.0930034220219,-4.39,-9.33,2,25.23
2022-05-23 14:26:59.899,14.2070040106773,0.82,25.59,3,-90
2022-05-23 14:27:00.013,14.3210045993328,6.29,28,3,-90
2022-05-23 14:27:00.129,14.4370067864656,9.46,28,3,-90
2022-05-23 14:27:00.244,14.5520031452179,9.51,28,3,-90
2022-05-23 14:27:00.358,14.6660037338734,5.94,5.22,3,21.67
2022-05-23 14:27:00.473,14.7810000926256,-0.3,-22,2,90
2022-05-23 14:27:00.587,14.8950006812811,-6.51,-22,3,87.29
2022-05-23 14:27:00.703,15.0110028684139,-9.52,-22,2,90
2022-05-23 14:27:00.817,15.1250034570694,-7.74,-19.35,2,74.04
2022-05-23 14:27:00.932,15.2399998158216,-1.71,20.31,2,-90
2022-05-23 14:27:01.046,15.3540004044771,5.33,28,2,-90
2022-05-23 14:27:01.161,15.4690068215132,10.37,28,2,-90
2022-05-23 14:27:01.275,15.5829973518848,11.64,28,2,-90
2022-05-23 14:27:01.390,15.6980037689209,8.45,15.64,2,-34.18
2022-05-23 14:27:01.505,15.8130001276731,1.6,-22,2,90
2022-05-23 14:27:01.619,15.9270007163286,-5.61,-22,3,88.6
2022-05-23 14:27:01.735,16.0430029034615,-9.6,-22,2,90
2022-05-23 14:27:01.849,16.1570034921169,-8.26,-22,2,87.29
2022-05-23 14:27:01.964,16.2719998508692,-2.64,15.27,2,-90
2022-05-23 14:27:02.078,16.3860004395247,3.33,28,2,-90
2022-05-23 14:27:02.193,16.5010068565607,7.23,28,2,-90
2022-05-23 14:27:02.308,16.616003215313,6.39,18.69,2,-49.41
2022-05-23 14:27:02.422,16.7300038039684,0.77,-21.88,2,90
2022-05-23 14:27:02.537,16.8450001627207,-5.96,-22,3,88.76
2022-05-23 14:27:02.651,16.9590007513762,-9.82,-22,2,90
2022-05-23 14:27:02.768,17.0759987086058,-8.69,-22,2,87.29
2022-05-23 14:27:02.881,17.1890035271645,-2.83,15.65,2,-90
2022-05-23 14:27:02.996,17.3039998859167,3.23,28,2,-90
2022-05-23 14:27:03.110,17.4180004745722,6.65,28,2,-90
2022-05-23 14:27:03.225,17.5330068916082,7.01,26.07,2,-86.31
2022-05-23 14:27:03.340,17.6480032503605,3.63,-2.01,3,51.57
2022-05-23 14:27:03.455,17.7629996091127,-1.8,-22,2,90
2022-05-23 14:27:03.570,17.8780060261488,-5.98,-22,2,87.29
2022-05-23 14:27:03.679,17.986997589469,-6.43,-22,2,88.6
2022-05-23 14:27:03.795,18.1029997766018,-3.22,2.74,3,-35.15
2022-05-23 14:27:03.909,18.2170003652573,1.75,27.85,2,-90
2022-05-23 14:27:04.024,18.3320067822933,5.97,28,2,-90
2022-05-23 14:27:04.137,18.4450015425682,7.39,28,2,-90
2022-05-23 14:27:04.253,18.561003729701,5,7.06,2,8.75
2022-05-23 14:27:04.368,18.6760000884533,0,-21.83,3,90
2022-05-23 14:27:04.483,18.7910065054893,-4.73,-22,2,90
2022-05-23 14:27:04.597,18.904997035861,-6.51,-22,2,87.29
2022-05-23 14:27:04.712,19.0200034528971,-3.31,2.42,3,-33.52
2022-05-23 14:27:04.826,19.1340040415525,2.86,28,2,-90
2022-05-23 14:27:04.941,19.2490004003048,8.3,28,2,-90
2022-05-23 14:27:05.056,19.3640068173409,10.58,28,3,-90
2022-05-23 14:27:05.170,19.4779973477125,8.53,20.94,2,-55.68
2022-05-23 14:27:05.285,19.5930037647486,2.4,-18.38,2,90
2022-05-23 14:27:05.400,19.7080001235008,-4.28,-22,2,90
2022-05-23 14:27:05.515,19.8230065405369,-7.9,-22,3,88.6
2022-05-23 14:27:05.630,19.9380028992891,-5.85,-11.53,3,41.25
2022-05-23 14:27:05.744,20.0520034879446,0.76,28,2,-90
2022-05-23 14:27:05.859,20.1669998466969,7.36,28,2,-90
2022-05-23 14:27:05.973,20.2810004353523,11.15,28,3,-90
2022-05-23 14:27:06.089,20.3970026224852,10.24,28,2,-90
2022-05-23 14:27:06.203,20.5110032111406,5.08,-4.72,3,66.33
2022-05-23 14:27:06.317,20.6250037997961,-2.04,-22,3,90
2022-05-23 14:27:06.432,20.7400001585484,-7.64,-22,3,90
2022-05-23 14:27:06.547,20.8550065755844,-9.26,-22,3,90
2022-05-23 14:27:06.662,20.9700029343367,-6.01,-6.82,2,16.34
2022-05-23 14:27:06.775,21.0829976946115,0.41,28,2,-90
2022-05-23 14:27:06.891,21.1989998817444,6.74,28,2,-90
2022-05-23 14:27:07.005,21.3130004703999,10.46,28,3,-90
2022-05-23 14:27:07.120,21.4280068874359,9.64,28,2,-90
2022-05-23 14:27:07.235,21.5430032461882,3.65,-13.4,2,90
2022-05-23 14:27:07.350,21.6579996049404,-4.44,-22,3,90
2022-05-23 14:27:07.465,21.7730060219765,-10.33,-22,2,90
2022-05-23 14:27:07.579,21.8870066106319,-11.35,-22,3,87.29
2022-05-23 14:27:07.693,22.0009971410036,-6.75,-3.56,2,1.37
2022-05-23 14:27:07.807,22.1149977296591,0.82,28,2,-90
2022-05-23 14:27:07.923,22.2309999167919,8.42,28,2,-90
2022-05-23 14:27:08.038,22.346006333828,12.89,28,3,-90
2022-05-23 14:27:08.152,22.4600069224834,11.77,28,3,-90
2022-05-23 14:27:08.267,22.5750032812357,5.45,-8.52,2,90
2022-05-23 14:27:08.381,22.6890038698912,-3.04,-22,3,90
2022-05-23 14:27:08.496,22.8040002286434,-10.01,-22,2,90
2022-05-23 14:27:08.611,22.9190066456795,-12.55,-22,2,87.29
2022-05-23 14:27:08.725,23.0329971760511,-9.41,-19.26,2,74.89
2022-05-23 14:27:08.841,23.148999363184,-2,25.32,2,-90
2022-05-23 14:27:08.955,23.2629999518394,6.6,28,2,-90
2022-05-23 14:27:09.066,23.3740031719208,12.38,28,2,-90
2022-05-23 14:27:09.180,23.4880037605762,12.08,28,2,-90
2022-05-23 14:27:09.295,23.6030001193285,6.1,-4.72,2,67.65
2022-05-23 14:27:09.409,23.717000707984,-2.18,-22,2,90
2022-05-23 14:27:09.525,23.8330028951168,-9.28,-22,3,88.6
2022-05-23 14:27:09.638,23.9459976553917,-12.04,-22,2,90
2022-05-23 14:27:09.753,24.0610040724277,-9.08,-18.85,2,71.54
2022-05-23 14:27:09.868,24.17600043118,-1.73,25.99,2,-90
2022-05-23 14:27:09.983,24.2910068482161,6.88,28,2,-90
2022-05-23 14:27:10.098,24.4060032069683,12.46,28,2,-90
2022-05-23 14:27:10.213,24.5209995657206,11.89,28,2,-90
2022-05-23 14:27:10.327,24.635000154376,5.31,-10.14,3,90
2022-05-23 14:27:10.441,24.7490007430315,-3.54,-22,3,90
2022-05-23 14:27:10.556,24.8639971017838,-10.54,-22,3,90
2022-05-23 14:27:10.671,24.9790035188198,-12.42,-22,3,90
2022-05-23 14:27:10.785,25.0930041074753,-8.94,-16.11,2,62.86
2022-05-23 14:27:10.900,25.2080004662275,-2.31,20.86,2,-90
2022-05-23 14:27:11.015,25.3230068832636,3.2,28,2,-90
2022-05-23 14:27:11.130,25.4380032420158,3.35,12.41,2,-18.02
2022-05-23 14:27:11.245,25.5529996007681,-0.81,-21.02,2,90
2022-05-23 14:27:11.360,25.6680060178041,-3.95,-22,2,89.88
2022-05-23 14:27:11.474,25.7820066064596,-4.15,-15.39,2,55.54
2022-05-23 14:27:11.589,25.8970029652119,-1.74,4.38,2,-34.66
2022-05-23 14:27:11.704,26.0119993239641,1.83,22.03,2,-90
2022-05-23 14:27:11.818,26.1259999126196,4.54,27.69,2,-90
2022-05-23 14:27:11.933,26.2410063296556,4.7,17.19,3,-42.35
2022-05-23 14:27:12.047,26.3550069183111,1.78,-6.57,2,66.37
2022-05-23 14:27:12.162,26.4700032770634,-2.97,-22,3,90
2022-05-23 14:27:12.277,26.5849996358156,-6.79,-22,3,90
2022-05-23 14:27:12.391,26.6990002244711,-7.4,-22,2,90
2022-05-23 14:27:12.506,26.8140066415071,-4.53,-3.3,2,-6.23
2022-05-23 14:27:12.620,26.9279971718788,0.19,21.3,2,-90
2022-05-23 14:27:12.734,27.0419977605343,4.65,28,3,-90
2022-05-23 14:27:12.850,27.1579999476671,6.35,28,3,-90
2022-05-23 14:27:12.965,27.2730063647032,3.8,2.16,2,36.95
2022-05-23 14:27:13.080,27.3880027234554,-1.47,-22,2,90
2022-05-23 14:27:13.194,27.5020033121109,-5.53,-22,3,88.6
2022-05-23 14:27:13.309,27.6169996708632,-5.59,-19.86,3,82.88
2022-05-23 14:27:13.424,27.7320060878992,-2.46,5.06,2,-40.22
2022-05-23 14:27:13.538,27.8460066765547,2.52,28,2,-90
2022-05-23 14:27:13.653,27.9610030353069,6.71,28,2,-90
2022-05-23 14:27:13.767,28.0750036239624,7.86,28,2,-90
2022-05-23 14:27:13.882,28.1899999827147,4.5,1.06,3,38.76
2022-05-23 14:27:13.997,28.3050063997507,-1.71,-22,2,90
2022-05-23 14:27:14.111,28.4189969301224,-7,-22,2,87.29
2022-05-23 14:27:14.226,28.5340033471584,-9.14,-22,3,88.6
2022-05-23 14:27:14.341,28.6489997059107,-6.68,-12.62,3,46.7
2022-05-23 14:27:14.452,28.760002925992,-0.38,26.16,2,-90
2022-05-23 14:27:14.566,28.8740035146475,7.28,28,2,-90
2022-05-23 14:27:14.681,28.9889998733997,12.14,28,3,-90
2022-05-23 14:27:14.795,29.1030004620552,11.6,28,3,-90
2022-05-23 14:27:14.911,29.219002649188,5.57,-6.84,2,81.93
2022-05-23 14:27:15.025,29.3330032378435,-2.79,-22,3,90
2022-05-23 14:27:15.140,29.4479995965958,-9.45,-22,2,90
2022-05-23 14:27:15.255,29.5630060136318,-11.66,-22,3,87.29
2022-05-23 14:27:15.369,29.6770066022873,-8.17,-13.34,2,50.31
2022-05-23 14:27:15.483,29.790997132659,-1.96,20.24,3,-90
2022-05-23 14:27:15.598,29.906003549695,3.03,28,2,-90
2022-05-23 14:27:15.713,30.0209999084473,4.77,24.3,2,-78.8
2022-05-23 14:27:15.827,30.1350004971027,2.51,-1.07,3,44.56
2022-05-23 14:27:15.942,30.2500069141388,-0.8,-17.27,2,90
2022-05-23 14:27:16.057,30.365003272891,-2.36,-15.04,2,58.66
2022-05-23 14:27:16.172,30.4799996316433,-1.21,0.79,3,-16.24
